Flag for Germany Weather past 2 weeks in Ludwigsfelde, Brandenburg, Germany

Now
60 °F

Overcast.


Feels Like: 59 °F
Forecast: 53 / 68 °F
Wind: 7 mph from West

Location: Potsdam

Current Time: Sep 2, 2015 at 1:28:51 AM

Latest Report: Sep 2, 2015 at 1:00 AM


Visibility: 28 mi

Pressure: 29.93 "Hg

Humidity: 92%

Dew point: 57 °F

Location of LudwigsfeldeLocation

Historic Weather in Ludwigsfelde — Graph

°F

Ludwigsfelde temperature yesterday

Maximum temperature yesterday: 82 °F (at 3:00 PM)
Minimum temperature yesterday: 60 °F (at 11:00 PM)
Average temperature yesterday: 72 °F

Past Weeks' High & Low Weather Summary

 TemperatureHumidityPressure
High93 °F (Aug 31, 4:00 PM)100% (Aug 19, 6:00 AM)30.31 "Hg (Aug 19, 6:00 AM)
Low54 °F (Aug 29, 7:00 AM)22% (Aug 22, 5:00 PM)29.70 "Hg (Aug 24, 10:00 PM)
Average67 °F70%30.01 "Hg
* Reported Aug 17 11:00 PM — Sep 1 11:00 PM, Ludwigsfelde, Weather by CustomWeather, © 2015

Note: Actual official high and low records may vary slightly from our data, if they occured in-between our weather recording intervals... More about our weather records

Advertising

Ludwigsfelde weather history for previous 24 hours

 ConditionsComfort  
Time TempWeatherWind HumidityBarometerVisibility
11:00 PM
Tue, Sep 1
60 °FLow clouds.8 mph94%29.89 "Hg28 mi
10:00 PM61 °FLow clouds.8 mph96%29.86 "Hg25 mi
9:00 PM61 °FOvercast.6 mph97%29.85 "Hg22 mi
8:00 PM61 °FLow clouds.6 mph96%29.83 "Hg25 mi
7:00 PM63 °FThunderstorms. Low clouds.7 mph96%29.78 "Hg16 mi
6:00 PM67 °FSprinkles. Overcast.8 mph90%29.75 "Hg14 mi
5:00 PM76 °FPartly sunny.7 mph63%29.71 "Hg16 mi
4:00 PM81 °FScattered clouds.3 mph56%29.71 "Hg19 mi
3:00 PM82 °FScattered clouds.3 mph54%29.72 "Hg19 mi
2:00 PM80 °FScattered clouds.3 mph57%29.73 "Hg19 mi
1:00 PM79 °FScattered clouds.3 mph57%29.74 "Hg17 mi
12:00 PM78 °FPassing clouds.5 mph60%29.75 "Hg17 mi
11:00 AM76 °FPassing clouds.5 mph67%29.76 "Hg17 mi
10:00 AM74 °FPassing clouds.7 mph71%29.76 "Hg17 mi
9:00 AM71 °FPassing clouds.6 mph79%29.75 "Hg16 mi
8:00 AM69 °FPassing clouds.6 mph83%29.75 "Hg16 mi
7:00 AM68 °FPassing clouds.5 mph84%29.74 "Hg16 mi
6:00 AM69 °FPassing clouds.5 mph79%29.74 "Hg16 mi
5:00 AM71 °FPassing clouds.6 mph76%29.73 "Hg19 mi
4:00 AM72 °FClear.6 mph72%29.72 "Hg19 mi
3:00 AM74 °FPassing clouds.6 mph72%29.72 "Hg19 mi
2:00 AM76 °FPassing clouds.3 mph72%29.72 "Hg19 mi
1:00 AM77 °FPassing clouds.6 mph71%29.73 "Hg22 mi
Weather by CustomWeather, © 2015

See weather overviewHow to use our weather pages